SUPERVIEW NEO-2 01

导读

SUPERVIEW NEO-2 01是中国于2022年7月15日成功发射的高分辨率光学商业遥感卫星,隶属于“景观”(SuperView)新一代卫星星座。作为中国商业高分辨率观测卫星体系的组成部分,它主要服务于自然资源调查、城市安全管控、应急灾害响应、海洋监测等领域,可为全球用户提供高精度对地观测数据与多样化空间信息应用服务,推动我国商业遥感产业发展,也满足各行业对空间地理信息的不断增长需求。

Basic Information
目录编号:
53128
目录名称:
SUPERVIEW NEO-2 01
国际标识:
2022-082A
轨道中心:
EARTH
卫星名称:
SUPERVIEW NEO-2 01
卫星全名:
--
卫星状态:
在轨 (已飞行1520 天)
发射日期:
2022-07-15 UTC
国别 :
中国 (CN)
星等 :
--
This satellite is enrolled in the Space Conjunction Data Service (SCDS) and the current flight risk assessment level is: No High Risk
Orbit Information
数据来源 国际轨道数据 AOE轨道数据
星历时间 2026-09-12T01:51:43+0800
14小时前
查看轨道信息
2026-09-06T02:00:00+0800
6天前
查看轨道信息
半长轴 6870.418km 6870.405km
偏心率 0.0001713 0.000188
轨道倾角 97.393° 97.394°
近地点辐角 89.614° 82.915°
升交点赤经 263.579° 257.663°
平近点角 270.529° 160.659°
近地点 491.104km 490.976km
远地点 493.458km 493.56km
周期 94.457分钟 94.457分钟
每日圈数 15.245021 15.245066
Detailed Information
使用方式:
暂无
2D Orbit Map
3D Orbit Map
Orbit Altitude Analysis Chart
Orbit Inclination Analysis Chart
Orbit Comprehensive Analysis Chart
View Comprehensive Chart
Miss Distance Evolution Trend with All Objects
Collision Probability Evolution Trend with All Objects